Weather History for Eagle River, WI

Change the Weather History Date:

Sunday, December 25, 2011

  Actual Average Record
Temperature  
Mean Temperature -2 °C -  
Max Temperature 0 °C -10 °C 0 °C (1991)
Min Temperature -3 °C -20 °C -30 °C (2004)
Degree Days  
Heating Degree Days 36    
Moisture  
Dew Point -4 °C    
Average Humidity 76    
Maximum Humidity 95    
Minimum Humidity 68    
Precipitation  
Precipitation 0.25 mm - - ()
Sea Level Pressure  
Sea Level Pressure 1014 hPa    
Wind  
Wind Speed 16 km/h (WNW)    
Max Wind Speed 32 km/h    
Max Gust Speed 45 km/h    
Visibility 15 kilometers    
Events Snow    
Averages and records for this station are not official NWS values.
T = Trace of Precipitation, MM = Missing Value Source: NWS Daily Summary

Daily Weather History Graph

Daily Weather History Graph

Search for Another Location

Airport:

Trip Planner

Search our weather history database for the weather conditions in past years. The results will help you decide how hot, cold, wet, or windy it might be!

Date:

Astronomy

Dec. 25, 2011 Rise Set
Actual Time 7:37 AM CST 4:16 PM CST
Civil Twilight 7:02 AM CST 4:51 PM CST
Nautical Twilight 6:24 AM CST 5:29 PM CST
Astronomical Twilight 5:48 AM CST 6:05 PM CST
Moon 8:13 AM CST (12/25) 5:40 PM CST (12/25)
Length of Visible Light 9h 48m
Length of Day
8h 39m
New Moon, 1% of the Moon is Illuminated
Dec 25
New Moon
Jan 1
First Quarter
Jan 9
Full
Jan 16
Last Quarter
Jan 23
New

Hourly Weather History & Observations

Time (CST) Temp. Windchill Dew Point Humidity Pressure Visibility Wind Dir Wind Speed Gust Speed Precip Events Conditions
12:15 AM -1.8 °C -5.7 °C -5.6 °C 76% 1009.4 hPa 16.1 km WSW 11.1 km/h / 3.1 m/s - N/A   Scattered Clouds
12:35 AM -2.4 °C -5.9 °C -6.0 °C 77% 1009.0 hPa 16.1 km WSW 9.3 km/h / 2.6 m/s - N/A   Clear
12:55 AM -3.0 °C -7.2 °C -6.3 °C 78% 1009.0 hPa 16.1 km WSW 11.1 km/h / 3.1 m/s - N/A   Clear
1:35 AM -2.9 °C -7.9 °C -6.1 °C 79% 1008.4 hPa 16.1 km WSW 14.8 km/h / 4.1 m/s - N/A   Mostly Cloudy
1:55 AM -1.8 °C -6.2 °C -5.6 °C 76% 1008.0 hPa 16.1 km WSW 13.0 km/h / 3.6 m/s - N/A   Overcast
2:15 AM -1.6 °C -5.9 °C -5.6 °C 74% 1008.0 hPa 16.1 km WSW 13.0 km/h / 3.6 m/s - N/A   Overcast
2:35 AM -1.5 °C -5.8 °C -5.6 °C 74% 1008.0 hPa 16.1 km West 13.0 km/h / 3.6 m/s - N/A   Mostly Cloudy
2:55 AM -0.8 °C -6.0 °C -5.5 °C 71% 1008.0 hPa 16.1 km West 18.5 km/h / 5.1 m/s 27.8 km/h / 7.7 m/s N/A   Mostly Cloudy
3:35 AM -0.5 °C -5.6 °C -5.5 °C 69% 1007.3 hPa 16.1 km West 18.5 km/h / 5.1 m/s 31.5 km/h / 8.7 m/s N/A   Mostly Cloudy
3:55 AM -0.5 °C -5.9 °C -5.5 °C 69% 1007.3 hPa 16.1 km West 20.4 km/h / 5.7 m/s 31.5 km/h / 8.7 m/s N/A   Mostly Cloudy
4:15 AM -0.5 °C -5.3 °C -5.2 °C 71% 1007.7 hPa 16.1 km West 16.7 km/h / 4.6 m/s 31.5 km/h / 8.7 m/s N/A   Overcast
4:35 AM -0.7 °C -5.6 °C -5.1 °C 72% 1008.0 hPa 16.1 km West 16.7 km/h / 4.6 m/s - N/A   Overcast
4:55 AM -0.7 °C -5.6 °C -4.7 °C 75% 1008.4 hPa 16.1 km West 16.7 km/h / 4.6 m/s - N/A   Overcast
5:15 AM -0.7 °C -5.2 °C -4.4 °C 76% 1008.7 hPa 16.1 km West 14.8 km/h / 4.1 m/s - N/A   Overcast
5:35 AM -0.6 °C -5.4 °C -4.3 °C 76% 1008.7 hPa 16.1 km West 16.7 km/h / 4.6 m/s 25.9 km/h / 7.2 m/s N/A   Overcast
6:15 AM -0.6 °C -6.0 °C -4.0 °C 78% 1009.4 hPa 16.1 km WNW 20.4 km/h / 5.7 m/s 33.3 km/h / 9.3 m/s N/A   Overcast
6:35 AM -0.7 °C -5.2 °C -3.5 °C 82% 1009.7 hPa 6.4 km WNW 14.8 km/h / 4.1 m/s 33.3 km/h / 9.3 m/s N/A Snow Light Snow
6:55 AM -1.0 °C -6.2 °C -3.0 °C 86% 1010.4 hPa 4.8 km WNW 18.5 km/h / 5.1 m/s 33.3 km/h / 9.3 m/s N/A Snow Light Snow
7:15 AM -1.0 °C -6.5 °C -1.7 °C 95% 1010.4 hPa 4.8 km WNW 20.4 km/h / 5.7 m/s 29.6 km/h / 8.2 m/s N/A Snow Light Snow
7:35 AM -0.9 °C -6.7 °C -2.5 °C 89% 1010.7 hPa 16.1 km NW 22.2 km/h / 6.2 m/s 42.6 km/h / 11.8 m/s N/A   Overcast
7:55 AM -0.7 °C -6.4 °C -3.0 °C 85% 1011.1 hPa 11.3 km WNW 22.2 km/h / 6.2 m/s 33.3 km/h / 9.3 m/s N/A   Overcast
8:35 AM -0.5 °C -6.9 °C -2.8 °C 85% 1012.1 hPa 16.1 km NW 27.8 km/h / 7.7 m/s 35.2 km/h / 9.8 m/s N/A   Overcast
8:55 AM -0.2 °C -6.3 °C -3.1 °C 81% 1012.4 hPa 16.1 km NW 25.9 km/h / 7.2 m/s 38.9 km/h / 10.8 m/s N/A   Overcast
9:15 AM 0.0 °C -6.2 °C -3.2 °C 79% 1012.8 hPa 16.1 km NW 27.8 km/h / 7.7 m/s 37.0 km/h / 10.3 m/s N/A   Overcast
9:35 AM 0.0 °C -5.8 °C -3.3 °C 79% 1013.4 hPa 16.1 km NW 24.1 km/h / 6.7 m/s 33.3 km/h / 9.3 m/s N/A   Overcast
9:55 AM 0.0 °C -5.0 °C -3.2 °C 79% 1013.8 hPa 16.1 km NW 18.5 km/h / 5.1 m/s 35.2 km/h / 9.8 m/s N/A   Overcast
10:15 AM 0.0 °C -5.3 °C -3.1 °C 80% 1014.1 hPa 16.1 km WNW 20.4 km/h / 5.7 m/s 33.3 km/h / 9.3 m/s N/A   Overcast
10:35 AM 0.0 °C -5.5 °C -3.2 °C 79% 1014.4 hPa 16.1 km WNW 22.2 km/h / 6.2 m/s 33.3 km/h / 9.3 m/s N/A   Overcast
10:55 AM 0.0 °C -5.3 °C -3.1 °C 80% 1014.4 hPa 16.1 km WNW 20.4 km/h / 5.7 m/s 31.5 km/h / 8.7 m/s N/A Snow Light Snow
11:15 AM 0.0 °C -5.0 °C -2.7 °C 82% 1014.8 hPa 16.1 km NW 18.5 km/h / 5.1 m/s 27.8 km/h / 7.7 m/s N/A Snow Light Snow
11:35 AM 0.1 °C -4.9 °C -2.6 °C 82% 1014.8 hPa 16.1 km NW 18.5 km/h / 5.1 m/s 27.8 km/h / 7.7 m/s N/A   Overcast
11:55 AM 0.4 °C -6.1 °C -2.5 °C 81% 1015.1 hPa 16.1 km NNW 31.5 km/h / 8.7 m/s 42.6 km/h / 11.8 m/s 0.3 mm   Overcast
12:15 PM 0.5 °C -5.6 °C -3.3 °C 76% 1015.8 hPa 16.1 km NNW 27.8 km/h / 7.7 m/s 44.4 km/h / 12.3 m/s N/A   Overcast
12:55 PM 0.0 °C -4.7 °C -3.6 °C 77% 1016.1 hPa 16.1 km NW 16.7 km/h / 4.6 m/s 31.5 km/h / 8.7 m/s N/A   Overcast
1:15 PM -0.1 °C -6.1 °C -3.3 °C 79% 1016.5 hPa 2.8 km NW 25.9 km/h / 7.2 m/s 35.2 km/h / 9.8 m/s N/A Snow Light Snow
1:35 PM -0.2 °C -4.9 °C -2.7 °C 83% 1016.8 hPa 16.1 km WNW 16.7 km/h / 4.6 m/s - N/A   Overcast
2:15 PM -0.1 °C -5.1 °C -3.2 °C 80% 1017.2 hPa 16.1 km NW 18.5 km/h / 5.1 m/s - N/A   Overcast
2:35 PM 0.0 °C -5.0 °C -4.2 °C 74% 1017.5 hPa 16.1 km NW 18.5 km/h / 5.1 m/s - N/A   Overcast
2:55 PM 0.0 °C -4.4 °C -4.6 °C 71% 1017.8 hPa 16.1 km WNW 14.8 km/h / 4.1 m/s - N/A   Overcast
3:15 PM 0.0 °C -4.4 °C -4.5 °C 72% 1018.2 hPa 16.1 km NW 14.8 km/h / 4.1 m/s 29.6 km/h / 8.2 m/s N/A   Overcast
3:35 PM 0.0 °C -5.5 °C -4.6 °C 71% 1018.8 hPa 16.1 km WNW 22.2 km/h / 6.2 m/s 35.2 km/h / 9.8 m/s N/A   Overcast
3:55 PM 0.0 °C -4.7 °C -4.7 °C 71% 1019.2 hPa 16.1 km WNW 16.7 km/h / 4.6 m/s 31.5 km/h / 8.7 m/s N/A   Overcast
4:35 PM 0.0 °C -5.3 °C -5.2 °C 68% 1019.9 hPa 16.1 km NW 20.4 km/h / 5.7 m/s 25.9 km/h / 7.2 m/s N/A   Overcast
4:55 PM 0.0 °C -6.0 °C -5.2 °C 68% 1020.2 hPa 16.1 km NW 25.9 km/h / 7.2 m/s 38.9 km/h / 10.8 m/s N/A   Overcast
5:15 PM 0.0 °C -4.7 °C -5.1 °C 69% 1020.9 hPa 16.1 km NW 16.7 km/h / 4.6 m/s 31.5 km/h / 8.7 m/s N/A   Overcast
5:35 PM 0.0 °C -5.0 °C -5.0 °C 69% 1020.5 hPa 16.1 km WNW 18.5 km/h / 5.1 m/s 29.6 km/h / 8.2 m/s N/A   Overcast
5:55 PM 0.0 °C -4.0 °C -4.9 °C 70% 1020.5 hPa 16.1 km NW 13.0 km/h / 3.6 m/s 27.8 km/h / 7.7 m/s N/A   Overcast
6:15 PM -0.1 °C -3.7 °C -4.7 °C 71% 1020.9 hPa 16.1 km NW 11.1 km/h / 3.1 m/s - N/A   Overcast
6:35 PM -0.1 °C -4.1 °C -4.6 °C 72% 1020.9 hPa 16.1 km WNW 13.0 km/h / 3.6 m/s - N/A   Overcast
6:55 PM -0.1 °C -4.5 °C -4.7 °C 71% 1020.5 hPa 16.1 km WNW 14.8 km/h / 4.1 m/s - N/A   Overcast
7:15 PM -0.1 °C -3.7 °C -4.6 °C 72% 1020.9 hPa 16.1 km WNW 11.1 km/h / 3.1 m/s - N/A   Overcast
7:35 PM -0.1 °C -5.4 °C -4.5 °C 73% 1020.9 hPa 16.1 km WNW 20.4 km/h / 5.7 m/s 27.8 km/h / 7.7 m/s N/A   Overcast
7:55 PM -0.1 °C -3.7 °C -4.8 °C 71% 1020.5 hPa 16.1 km WNW 11.1 km/h / 3.1 m/s - N/A   Overcast
8:15 PM -0.2 °C -2.8 °C -4.9 °C 71% 1020.5 hPa 16.1 km WNW 7.4 km/h / 2.1 m/s - N/A   Overcast
8:35 PM -0.3 °C -2.2 °C -4.9 °C 71% 1020.5 hPa 16.1 km West 5.6 km/h / 1.5 m/s - N/A   Overcast
8:55 PM -0.5 °C -5.0 °C -4.8 °C 73% 1020.2 hPa 16.1 km West 14.8 km/h / 4.1 m/s - N/A   Overcast
9:15 PM -0.5 °C -3.1 °C -5.0 °C 72% 1020.2 hPa 16.1 km West 7.4 km/h / 2.1 m/s - N/A   Overcast
9:35 PM -0.7 °C -4.8 °C -5.1 °C 72% 1019.9 hPa 16.1 km West 13.0 km/h / 3.6 m/s - N/A   Overcast
9:55 PM -0.9 °C -3.6 °C -5.2 °C 73% 1019.9 hPa 16.1 km West 7.4 km/h / 2.1 m/s - N/A   Overcast
10:15 PM -1.4 °C -4.2 °C -5.6 °C 73% 1019.5 hPa 16.1 km WSW 7.4 km/h / 2.1 m/s - N/A   Mostly Cloudy
10:35 PM -2.9 °C -5.1 °C -6.4 °C 77% 1019.9 hPa 16.1 km WSW 5.6 km/h / 1.5 m/s - N/A   Scattered Clouds
10:55 PM -2.9 °C -5.1 °C -6.1 °C 79% 1019.9 hPa 16.1 km SW 5.6 km/h / 1.5 m/s - N/A   Clear
11:15 PM -2.9 °C -5.1 °C -6.0 °C 79% 1019.5 hPa 16.1 km SW 5.6 km/h / 1.5 m/s - N/A   Clear
11:35 PM -3.3 °C -6.4 °C -6.2 °C 81% 1019.5 hPa 16.1 km SSW 7.4 km/h / 2.1 m/s - N/A   Clear
11:55 PM -2.8 °C -5.8 °C -5.7 °C 81% 1019.2 hPa 16.1 km SSW 7.4 km/h / 2.1 m/s - N/A   Clear